Powrót do katalogu

COSMOS 2499 DEB

AktywnyPO
NORAD 50802·DEBRIS·🇷🇺 Russia

Wystrzelony May 23, 2014 z Plesetsk Cosmodrome

Loading…

Następne Przeloty (najbliższe 24 godziny)

TLE

NieaktualneSource: Space-Track

Epoka: Aug 17, 2026, 02:38 UTC

1 50802U 14028AC  26229.11010771  .00004452  00000-0  88604-2 0  9992
2 50802  82.5548 178.1532 0325283  24.2333 337.3704 13.16573934227185

Śledź COSMOS 2499 DEB w czasie rzeczywistym z AllMySat

Download on the App Store